Terminal Aerodrome Forecast
Issued by NWS

Home | Current Version | Previous Version | Text Only | Print | Product List | Glossary On
Versions: 1 2 3 4 5 6 7 8 9 10 11 12 13 14 15 16 17
000
FTUS43 KAPX 181100
TAFMBL
TAF
KMBL 181121Z 1812/1912 34004KT P6SM OVC045
     FM181500 34011KT P6SM SCT150
     FM190000 06003KT P6SM SKC
     FM190900 08003KT P6SM BKN120
      AMD LTD TO CLD VIS AND WIND=

USA.gov is the U.S. government's official web portal to all federal, state and local government web resources and services.